Regional Weather Roundup
Issued by NWS

Home | Current Version | Previous Version | Text Only | Print | Product List | Glossary Off
Versions: 1 2 3 4 5 6 7 8 9 10 11 12 13 14 15 16 17 18 19 20 21 22 23 24 25 26 27 28 29 30 31 32 33 34 35 36 37 38 39 40 41 42 43 44 45 46 47 48 49 50

000
ASUS43 KLOT 250412
RWRIL

ILLINOIS REGIONAL WEATHER ROUNDUP
NATIONAL WEATHER SERVICE CHICAGO/ROMEOVILLE IL
1100 PM CDT SUN MAY 24 2015

NOTE: "FAIR" INDICATES FEW OR NO CLOUDS BELOW 12,000 FEET WITH NO
SIGNIFICANT WEATHER AND/OR OBSTRUCTIONS TO VISIBILITY.

* THESE STATIONS ARE NOT UNDER NWS QUALITY CONTROL. THEY ALSO MAY NOT
  REPORT WEATHER SUCH AS PRECIPITATION OR FOG.

ILZ001-002-007-009-015-016-024-250500-
NORTHWEST ILLINOIS

CITY           SKY/WX    TMP DP  RH WIND       PRES   REMARKS
MOLINE         CLOUDY    69  65  86 S10       29.85S
STERLING*      CLOUDY    70  64  83 SW6       29.89S
SAVANNA*       RAIN      69  66  90 SE13G18   29.85S
$$

ILZ003-004-008-010-011-017-018-250500-
NORTH CENTRAL ILLINOIS

CITY           SKY/WX    TMP DP  RH WIND       PRES   REMARKS
ROCKFORD       LGT RAIN  68  64  87 SW3       29.91R FOG
FREEPORT*      CLOUDY    66  64  93 S12       29.90F
ROCHELLE*      LGT RAIN  67  65  94 S14       29.90R
DE KALB*       CLOUDY    67  64  88 SE9       29.91F
PERU*          MOCLDY    74  64  69 S14       29.89F
$$

ILZ005-006-012>014-019>023-250500-
NORTHEAST ILLINOIS

CITY           SKY/WX    TMP DP  RH WIND       PRES   REMARKS
CHICAGO-OHARE  MOCLDY    66  62  87 S8        29.91F
CHICAGO-MIDWAY PTCLDY    75  63  66 S12       29.92F
AURORA         CLOUDY    74  61  63 S14       29.91F
LANSING*       PTCLDY    75  58  56 S20       29.95S
JOLIET*        PTCLDY    76  64  66 S12G18    29.93S
WAUKEGAN       CLOUDY    61  57  87 W9        29.93R
DUPAGE AIRPORT CLOUDY    67  64  90 S6        29.91R
KANKAKEE*      MOCLDY    75  62  64 SE14G22   29.95F
WHEELING       MOCLDY    62  60  93 S3        29.93S
MORRIS*        PTCLDY    73  62  68 S13G20    29.91S
ROMEOVILLE*    MOCLDY    73  61  67 S16       29.92F
NORTHERLY ISL    N/A     72  60  66 S14         N/A
$$

LMZ740>746-250500-
SOUTHERN LAKE MICHIGAN

STATION/POSITION SKY/WX   TEMP    WIND        PRES    VSBY  WAVE
                          AIR SEA DIR/SP/G                  HT/PER
                          (F)     (DEG/KT/KT) (MB)    (MI)  (FT/S)
SOUTHERN BUOY              49 38  110/ 10/ 12 1014.0F         1
HARRISON CRIB              61     170/ 11/ 11   N/A
BURNHAM HARBOR             73     180/  7/ 12   N/A
CALUMET HARBOR             76     160/ 11/ 16   N/A
BURNS HARBOR               76     180/ 10/ 17 1014.9R
MICHIGAN CITY              77     150/ 11/ 16   N/A
MICHIGAN CITY 6N           69 54  190/ 14/ 17   N/A           1
ST. JOSEPH                 68 55  190/ 12/ 14   N/A           1
$$

ILZ025>027-034>036-040-047-049-050-058-095>099-250500-
WEST-CENTRAL ILLINOIS

CITY           SKY/WX    TMP DP  RH WIND       PRES   REMARKS
QUINCY         LGT RAIN  67  66  97 SE5       29.83F FOG
GALESBURG*     LGT RAIN  66  65  96 S9        29.88F
MACOMB*        CLOUDY    67  66  97 S7        29.88F
JACKSONVILLE*  LGT RAIN  72  68  87 CALM      29.89S
PITTSFIELD*    LGT RAIN  68  65  91 E9        29.86F
$$

ILZ028>032-037-038-041>044-048-051>054-059>061-250500-
CENTRAL ILLINOIS

CITY           SKY/WX    TMP DP  RH WIND       PRES   REMARKS
PONTIAC        MOCLDY    77  64  64 S17G24    29.93S
BLOOMINGTON    MOCLDY    76  65  68 S22G28    29.93F
DECATUR        FAIR      77  64  64 S17G25    29.94S
PEORIA         CLOUDY    72  66  81 W12       29.90R
LACON*         CLOUDY    76  62  63 S15G22    29.87F
LINCOLN*       CLOUDY    78  64  60 S14G22    29.88S HX  80
SPRINGFIELD    LGT RAIN  77  66  68 S24G33    29.90S
TAYLORVILLE    CLOUDY    75  64  69 SE16      29.92S
$$

ILZ033-039-045-046-055>057-062-063-250500-
EAST-CENTRAL ILLINOIS

CITY           SKY/WX    TMP DP  RH WIND       PRES   REMARKS
CHAMPAIGN      MOCLDY    76  62  62 S18       29.96F
DANVILLE*      PTCLDY    74  62  65 S13       29.96F
RANTOUL*       PTCLDY    76  63  63 S15       29.96S
MATTOON        PTCLDY    75  63  66 S16G26    29.96F
PARIS*         PTCLDY    76  63  64 S17G23    30.01S
$$

ILZ079-100>102-250500-
SOUTHWEST ILLINOIS

CITY           SKY/WX    TMP DP  RH WIND       PRES   REMARKS
ALTON          CLOUDY    70  70 100 SE12G20   29.92S
BELLEVILLE     CLOUDY    67  67 100 SE8       29.92F
CAHOKIA*       LGT RAIN  69  65  86 SE9       29.90F
SPARTA*        CLOUDY    69  67  93 S13       29.97F
$$

ILZ064>066-069>071-074>076-080>082-084>086-088>090-092>094-250500-
SOUTH-CENTRAL ILLINOIS

CITY           SKY/WX    TMP DP  RH WIND       PRES   REMARKS
CARBONDALE     HVY RAIN  68  66  93 SW12G22   30.01R FOG
CAIRO*         LGT RAIN  71  68  92 S12G17    30.02R
EFFINGHAM*     CLOUDY    76  62  61 SE12G24   29.99S
MARION         CLOUDY    70  68  94 S7        30.01S
MT. VERNON     CLOUDY    68  63  83 S8        30.00F
CENTRALIA*     RAIN      66  64  94 S14G31    29.98F
SALEM*         RAIN      71  66  85 S18G30      N/A
METROPOLIS*    CLOUDY    75  66  73 S15G25    30.03R
$$

ILZ067-068-072-073-078-083-087-091-250500-
SOUTHEAST ILLINOIS

CITY           SKY/WX    TMP DP  RH WIND       PRES   REMARKS
LAWRENCEVILLE  MOCLDY    76  63  64 S15G21    30.02F
FLORA*         PTCLDY    75  65  72 S21G32    30.00S
FAIRFIELD*     CLOUDY    75  67  74 S10       29.99S
HARRISBURG*    CLOUDY    76  67  74 S17       30.02S
ROBINSON*      MOCLDY    75  63  64 S12       30.02F
CARMI*         CLOUDY    75  63  64 S16       30.01F
$$

ABBREVIATIONS USED IN REMARKS
   TC - TEMPERATURE IN CELSIUS
  WCI - WIND CHILL INDEX
   HX - HEAT INDEX
  VSB - VISIBILITY
$$




USA.gov is the U.S. government's official web portal to all federal, state and local government web resources and services.